Location: Gipe Farm
(40.9466°N, 95.5370°W)
Time: 20:34:12
(UTC-05:00)

Cosmos 1842 - Visible Passes

Search period start: 29 August 2015 00:00
Search period end: 08 September 2015 00:00
Orbit: 530 x 544 km, 82.5° (Epoch: 29 August)

Date Brightness Start Highest point End Pass type
(mag) Time Alt. Az. Time Alt. Az. Time Alt. Az.
29 Aug 5.2 20:54:28 10° NE 20:56:33 14° ENE 20:57:30 13° E visible
29 Aug 4.4 22:29:15 10° NNW 22:32:58 40° W 22:32:58 40° W visible
30 Aug 5.2 20:46:15 10° NE 20:48:17 14° ENE 20:49:35 12° E visible
30 Aug 4.3 22:20:59 10° NNW 22:24:45 41° W 22:25:03 40° WSW visible
31 Aug 5.2 20:38:00 10° NE 20:40:02 14° ENE 20:41:42 11° E visible
31 Aug 4.4 22:12:43 10° NNW 22:16:29 41° W 22:17:11 37° WSW visible
01 Sep 5.2 20:29:46 10° NE 20:31:45 14° ENE 20:33:52 10° ESE visible
01 Sep 4.4 22:04:27 10° NNW 22:08:14 42° W 22:09:21 33° SW visible
02 Sep 5.2 20:21:32 10° NE 20:23:28 13° ENE 20:25:35 10° ESE visible
02 Sep 4.4 21:56:10 10° NNW 21:59:57 42° W 22:01:33 28° SW visible
03 Sep 5.2 20:13:17 10° NE 20:15:11 13° ENE 20:17:16 10° E visible
03 Sep 4.4 21:47:52 10° NNW 21:51:41 43° W 21:53:49 22° SSW visible
04 Sep 4.4 21:39:35 10° NNW 21:43:24 44° W 21:46:08 17° SSW visible
05 Sep 4.4 21:31:18 10° NNW 21:35:07 44° W 21:38:32 12° SSW visible
06 Sep 4.4 21:23:00 10° NNW 21:26:50 45° W 21:30:38 10° SSW visible
07 Sep 4.4 21:14:42 10° NNW 21:18:32 46° W 21:22:21 10° SSW visible
